[[{"header":{"parameterUnit":"m.s-1","parameterCategory":1,"la1":30.2991,"la2":30.254,"lo1":-89.0895,"lo2":-89.0444,"dy":0.0017,"dx":0.0017,"nx":28,"ny":28,"refTime":"2025-03-22T21:00:00:Z","depth":0,"parameterNumber":2,"parameterNumberName":"U-component_of_WINDS"},"data":[0,0,0,0,0,0,0,0,0,0,0,0,0,0,0,0,0,0,0,0,0,0,0,0,0,0,0,0,0,0,0,0,0,0,0,0,0,0,0,0,0,0,0,0,0,0,0,0,0,0,0,0,0,0,0,0,0,0,0.1049,0.1051,0,0.1209,0.1211,0.1213,0.1284,0.1284,0.1283,0.1283,0.1449,0.1453,0.1458,0,0,0,0,0,0,0,0,0,0,0,0,0,0.0803,0.0807,0.1049,0.1051,0.1053,0.1209,0.1211,0.1214,0.1284,0.1284,0.1283,0.1283,0.1447,0.1453,0.1458,0,0,0,0,0,0,0,0,0,0,0,0,0,0.0931,0.0808,0.1049,0.1107,0.1114,0.1209,0.1211,0.1214,0.1284,0.1284,0.1283,0.1283,0.1445,0.1452,0.1459,0.1509,0,0,0.148,0.1483,0,0,0,0,0,0,0,0,0.0924,0.094,0.1096,0.1103,0.1111,0.1226,0.1185,0.1313,0.1284,0.1219,0.1283,0.1283,0.1375,0.1388,0.1419,0.1516,0.1523,0.1481,0.1485,0.1488,0.149,0,0,0,0,0,0,0,0.0915,0.0933,0.1113,0.1098,0.1107,0.1125,0.1143,0.121,0.1297,0.1225,0.123,0.1248,0.1379,0.1412,0.1423,0.1526,0.1481,0.1487,0.1491,0.1494,0.167,0.1671,0,0,0,0,0,0,0.0896,0.0926,0.1107,0.1117,0.1014,0.1129,0.1149,0.119,0.1297,0.1313,0.1249,0.1251,0.14,0.1415,0.1429,0.1493,0.1488,0.1494,0.1498,0.167,0.167,0.1671,0,0,0,0,0,0,0.0891,0.0912,0.1101,0.1023,0.1048,0.1134,0.1179,0.1193,0.1226,0.1314,0.133,0.1266,0.14,0.1419,0.1488,0.15,0.1498,0.1504,0.1669,0.167,0.1671,0.1622,0,0,0,0,0,0,0.0883,0.0909,0.0929,0.1023,0.1052,0.1157,0.1179,0.1196,0.1237,0.1242,0.1335,0.135,0.1402,0.1477,0.1495,0.151,0.1509,0.1668,0.1669,0.167,0.1623,0.1621,0.162,0,0,0,0,0,0.0874,0.091,0.093,0.0952,0.1079,0.1158,0.1174,0.1233,0.1238,0.1259,0.1315,0.1347,0.1495,0.1483,0.1504,0.1521,0.1668,0.1669,0.167,0.1624,0.1622,0.162,0,0,0,0,0,0,0.0817,0.0923,0.0947,0.1014,0.1076,0.1169,0.1197,0.1228,0.1291,0.1293,0.1362,0.1383,0.1445,0.149,0.1474,0.1574,0.1584,0.159,0.1542,0.1541,0.1539,0.1527,0.1515,0,0,0,0,0,0.0811,0.0866,0.0957,0.1007,0.1037,0.1111,0.1148,0.1187,0.1254,0.1281,0.1343,0.1407,0.1468,0.1507,0.1568,0.1629,0.165,0.1651,0.1649,0.1647,0.1652,0.1686,0.1687,0.1675,0.1675,0.1675,0,0,0.0802,0.0867,0.0898,0.0997,0.105,0.1105,0.1133,0.119,0.1232,0.129,0.1358,0.1405,0.1481,0.1546,0.1577,0.1585,0.1659,0.1649,0.1647,0.1652,0.1688,0.1689,0.169,0.1676,0.1675,0.1675,0,0,0.0813,0.0868,0.0915,0.0967,0.1046,0.1095,0.1106,0.1194,0.1227,0.1296,0.1341,0.139,0.1494,0.1546,0.1586,0.1613,0.1645,0.1631,0.1623,0.1655,0.1656,0.1658,0.1667,0.1669,0.1635,0.1635,0.1634,0,0.0791,0.0876,0.0936,0.099,0.1032,0.1086,0.1134,0.1181,0.1276,0.1304,0.1311,0.1441,0.1496,0.1573,0.1579,0.161,0.1624,0.1622,0.1651,0.1653,0.1655,0.1665,0.1668,0.1632,0.1633,0.1633,0.1633,0,0.0845,0.0902,0.0931,0.102,0.1065,0.1116,0.1183,0.1222,0.1256,0.1304,0.1372,0.144,0.1515,0.1536,0.1571,0.1617,0.162,0.1638,0.165,0.1653,0.1663,0.1668,0.1629,0.163,0.1631,0.1631,0,0,0.0826,0.0946,0.0955,0.0996,0.1086,0.1131,0.1184,0.1256,0.1287,0.135,0.1396,0.1481,0.1498,0.1543,0.1584,0.1612,0.1628,0.1627,0.163,0.1625,0.1683,0.1669,0.1672,0.1649,0.165,0.1651,0.1677,0,0.0848,0.0945,0.1,0.1074,0.1127,0.1178,0.1223,0.1283,0.1328,0.138,0.143,0.1489,0.1507,0.1535,0.1565,0.162,0.1641,0.1619,0.1692,0.1694,0.1672,0.1678,0.1664,0.1685,0.1681,0.1682,0.1682,0,0.0889,0.095,0.1029,0.1111,0.1135,0.1175,0.1245,0.1294,0.1362,0.1393,0.1441,0.1482,0.1538,0.1545,0.1623,0.1607,0.164,0.1671,0.1673,0.1683,0.1689,0.1688,0.1693,0.1696,0.1689,0.1689,0.1688,0,0.0866,0.0968,0.1028,0.1061,0.1159,0.1185,0.1227,0.1295,0.1334,0.1395,0.1421,0.1488,0.1524,0.1575,0.1631,0.1631,0.1704,0.1715,0.1731,0.1729,0.1745,0.1744,0.1756,0.1765,0.1765,0.1765,0.1765,0,0.0886,0.0933,0.1019,0.1056,0.1109,0.117,0.1221,0.1267,0.1326,0.1372,0.142,0.1462,0.1534,0.1585,0.1629,0.1687,0.1703,0.173,0.1741,0.1726,0.1722,0.1749,0.1749,0.1766,0.1766,0.1766,0.1765,0,0.0871,0.0931,0.1,0.1085,0.1108,0.1143,0.1216,0.1254,0.13,0.1358,0.1375,0.1449,0.1511,0.1572,0.1656,0.1686,0.1743,0.1758,0.172,0.1727,0.1739,0.1736,0.1769,0.1776,0.178,0.1779,0.1779,0,0.088,0.0917,0.1006,0.104,0.1081,0.1135,0.1175,0.1236,0.1276,0.1355,0.1383,0.1448,0.1504,0.1601,0.1662,0.1726,0.1743,0.175,0.1753,0.1736,0.1743,0.174,0.1744,0.1748,0.1748,0.1748,0.1748,0,0.089,0.0917,0.0973,0.1039,0.1085,0.114,0.1197,0.1222,0.1293,0.1335,0.1399,0.1442,0.1527,0.1591,0.1662,0.1705,0.1738,0.1746,0.1753,0.1738,0.1714,0.1727,0.1716,0.1745,0.1745,0.1745,0.1746,0.1746,0.0887,0.0922,0.0989,0.105,0.1098,0.1149,0.1188,0.1239,0.1294,0.1367,0.14,0.1464,0.1529,0.1627,0.1669,0.172,0.1728,0.1738,0.1741,0.1743,0.1739,0.1705,0.1733,0.1733,0.1733,0.1733,0.1733,0,0.0899,0.0945,0.1,0.1077,0.1124,0.115,0.1213,0.1251,0.1306,0.1364,0.1418,0.149,0.1552,0.1617,0.1682,0.171,0.1727,0.1726,0.1725,0.1734,0.1728,0.1715,0.1711,0.1711,0.1711,0.1711,0.1711,0.1711,0.0911,0.097,0.1005,0.1088,0.1134,0.1197,0.1231,0.1278,0.1324,0.1403,0.1454,0.1496,0.1556,0.1626,0.1684,0.1701,0.1723,0.1717,0.1739,0.1733,0.1734,0.1736,0.1724,0.1722,0.1722,0.1741,0.1741,0.1741]},{"header":{"parameterUnit":"m.s-1","parameterCategory":1,"la1":30.2991,"la2":30.254,"lo1":-89.0895,"lo2":-89.0444,"dy":0.0017,"dx":0.0017,"nx":28,"ny":28,"refTime":"2025-03-22T21:00:00:Z","depth":0,"parameterNumber":3,"parameterNumberName":"V-component_of_WINDS"},"data":[0,0,0,0,0,0,0,0,0,0,0,0,0,0,0,0,0,0,0,0,0,0,0,0,0,0,0,0,0,0,0,0,0,0,0,0,0,0,0,0,0,0,0,0,0,0,0,0,0,0,0,0,0,0,0,0,0,0,4.5914,4.5913,0,4.5864,4.5863,4.5862,4.5851,4.5852,4.5852,4.5852,4.5794,4.5792,4.579,0,0,0,0,0,0,0,0,0,0,0,0,0,4.5994,4.5992,4.5914,4.5913,4.5912,4.5864,4.5863,4.5862,4.5851,4.5852,4.5852,4.5852,4.5795,4.5792,4.579,0,0,0,0,0,0,0,0,0,0,0,0,0,4.5953,4.5992,4.5914,4.5901,4.59,4.5864,4.5863,4.5862,4.5851,4.5852,4.5852,4.5853,4.5795,4.5793,4.579,4.5761,0,0,4.5781,4.578,0,0,0,0,0,0,0,0,4.5955,4.595,4.5904,4.5902,4.59,4.5864,4.587,4.5828,4.5851,4.5869,4.5852,4.5853,4.5816,4.5812,4.5801,4.5758,4.5755,4.5781,4.5779,4.5778,4.5777,0,0,0,0,0,0,0,4.5958,4.5952,4.5894,4.5903,4.5901,4.5896,4.5891,4.5862,4.584,4.5868,4.5867,4.5861,4.5815,4.5804,4.58,4.5755,4.5781,4.5778,4.5776,4.5775,4.5685,4.5684,0,0,0,0,0,0,4.5964,4.5954,4.5895,4.5892,4.593,4.5894,4.5888,4.5875,4.584,4.5836,4.5861,4.5861,4.5808,4.5803,4.5797,4.5761,4.5778,4.5775,4.5773,4.5686,4.5685,4.5684,0,0,0,0,0,0,4.5966,4.5959,4.5897,4.5923,4.5915,4.5892,4.5877,4.5874,4.5862,4.5835,4.5831,4.5853,4.5809,4.5801,4.577,4.5759,4.5774,4.5771,4.5687,4.5686,4.5685,4.5689,0,0,0,0,0,0,4.5968,4.5959,4.5949,4.5923,4.5914,4.5873,4.5877,4.5872,4.5858,4.5858,4.5827,4.5822,4.5808,4.5775,4.5768,4.5755,4.5769,4.5687,4.5686,4.5685,4.569,4.5688,4.5687,0,0,0,0,0,4.5971,4.5951,4.5949,4.5942,4.5901,4.5872,4.5867,4.5853,4.5857,4.5846,4.5829,4.5823,4.5762,4.5772,4.5764,4.575,4.5688,4.5687,4.5685,4.569,4.5688,4.5687,0,0,0,0,0,0,4.5974,4.5947,4.5945,4.5916,4.5897,4.5871,4.5856,4.5852,4.5829,4.5829,4.5811,4.5804,4.5774,4.5759,4.5771,4.572,4.5725,4.5722,4.5732,4.573,4.5728,4.5732,4.5767,0,0,0,0,0,4.5972,4.5953,4.593,4.5907,4.5898,4.5879,4.5866,4.5857,4.5836,4.5827,4.5807,4.5784,4.576,4.5744,4.572,4.5688,4.568,4.5674,4.5673,4.5672,4.5669,4.5651,4.5648,4.5679,4.5679,4.5679,0,0,4.5967,4.595,4.5938,4.5907,4.5891,4.587,4.5872,4.5849,4.5833,4.5822,4.5793,4.5778,4.5751,4.5719,4.5704,4.5706,4.5659,4.567,4.5669,4.5667,4.5649,4.5646,4.5643,4.5678,4.5678,4.5679,0,0,4.5946,4.5932,4.5912,4.5896,4.5873,4.5861,4.5856,4.583,4.5821,4.5791,4.5783,4.5762,4.572,4.5702,4.5687,4.5661,4.5654,4.5653,4.5645,4.5628,4.5625,4.5623,4.5613,4.561,4.5651,4.5651,4.5651,0,4.5942,4.5912,4.5901,4.588,4.5866,4.5858,4.5836,4.5821,4.579,4.5779,4.5782,4.573,4.5712,4.5676,4.567,4.5658,4.565,4.5656,4.5627,4.5625,4.5622,4.5612,4.5609,4.5651,4.5651,4.5651,4.5651,0,4.5908,4.5887,4.5873,4.5846,4.5831,4.5809,4.5793,4.5778,4.5771,4.5758,4.5728,4.5705,4.5677,4.5668,4.5659,4.563,4.5632,4.5631,4.5635,4.5619,4.561,4.5606,4.5651,4.5651,4.5651,4.5651,0,0,4.5887,4.5856,4.5851,4.5839,4.5813,4.5796,4.5773,4.5748,4.5735,4.5714,4.5694,4.566,4.5659,4.5642,4.5632,4.5616,4.5597,4.5617,4.5616,4.5614,4.5562,4.5563,4.5559,4.5593,4.5592,4.5591,4.5565,0,4.5863,4.5825,4.5815,4.5782,4.5763,4.5755,4.5735,4.5716,4.5704,4.5683,4.5668,4.5644,4.5646,4.5635,4.562,4.5602,4.5586,4.5604,4.5572,4.5571,4.5579,4.5554,4.5555,4.5531,4.5561,4.556,4.556,0,4.583,4.5811,4.5777,4.5755,4.5746,4.5729,4.5705,4.5687,4.5664,4.5656,4.5638,4.563,4.5604,4.561,4.5574,4.5587,4.5573,4.5562,4.5561,4.5557,4.5564,4.5549,4.5523,4.5519,4.5554,4.5554,4.5555,0,4.5818,4.5784,4.576,4.5749,4.5723,4.5711,4.5699,4.5677,4.5663,4.5641,4.5631,4.5606,4.5592,4.5572,4.5556,4.5562,4.5521,4.5525,4.5512,4.5512,4.5502,4.5503,4.5473,4.5495,4.5495,4.5495,4.5495,0,4.5792,4.5772,4.5754,4.5739,4.5715,4.5703,4.5679,4.5666,4.5647,4.5628,4.5619,4.5601,4.5581,4.556,4.5547,4.5519,4.5512,4.5503,4.55,4.5504,4.5505,4.5494,4.5495,4.5494,4.5494,4.5494,4.5494,0,4.5775,4.5762,4.5735,4.5713,4.5707,4.569,4.567,4.5654,4.5642,4.5617,4.5611,4.559,4.5565,4.5547,4.5513,4.5505,4.5474,4.5471,4.5482,4.5481,4.5468,4.5469,4.5429,4.5423,4.5449,4.5448,4.5448,0,4.5759,4.5743,4.572,4.5708,4.5697,4.5677,4.5663,4.565,4.5635,4.5609,4.5596,4.557,4.5549,4.5508,4.5489,4.5463,4.5459,4.5447,4.5455,4.5459,4.5458,4.5459,4.5457,4.5445,4.5445,4.5445,4.5445,0,4.5732,4.5727,4.5709,4.5688,4.5672,4.5655,4.5637,4.5627,4.561,4.5594,4.5569,4.5553,4.552,4.5494,4.5467,4.5451,4.5444,4.5443,4.5438,4.5441,4.5448,4.5444,4.5478,4.5443,4.5443,4.5443,4.5443,4.5444,4.5715,4.5701,4.5683,4.5662,4.5648,4.5632,4.5616,4.5603,4.5583,4.5557,4.5549,4.5523,4.5501,4.5464,4.5449,4.5426,4.5427,4.5421,4.5419,4.5417,4.5417,4.5453,4.5421,4.5421,4.5421,4.5421,4.5421,0,4.5687,4.5676,4.5658,4.5634,4.5618,4.5616,4.5596,4.5582,4.556,4.5541,4.5521,4.5492,4.5467,4.5447,4.5421,4.5407,4.5403,4.54,4.5401,4.5397,4.5418,4.5425,4.5404,4.5404,4.5404,4.5404,4.5404,4.5404,4.5671,4.5648,4.5641,4.5609,4.5597,4.5574,4.5563,4.5547,4.5532,4.5501,4.5481,4.5469,4.5449,4.5421,4.5398,4.5392,4.5383,4.5381,4.5374,4.5394,4.5396,4.5398,4.5404,4.5379,4.5379,4.5355,4.5355,4.5355]}]]